Temperature
10 9 9 9 9 8 8 7 7 7 7 6 6 6 5 5 5 5 5 5 5 5 5 6 6 6 7 7 7 7 7 7 7 8 8 9 9 10 10 10 10 11 11
9 9 8 8 8 7 7 6 6 6 6 5 5 4 4 4 4 4 4 4 4 4 4 4 4 4 5 5 5 6 6 6 6 6 7 7 8 8 9 9 10 10 10
8 8 7 7 7 6 6 5 5 5 5 4 4 4 3 3 3 3 2 2 2 2 2 3 3 3 3 4 4 4 4 5 5 5 6 6 7 7 8 8 8 9 9
7 7 6 6 5 5 4 4 4 4 4 3 3 3 2 2 2 2 2 2 2 2 2 2 2 2 2 2 2 3 3 3 4 4 5 5 6 6 6 7 7 8 8
6 5 5 4 4 4 4 4 3 3 2 2 2 1 1 1 0 1 1 0 1 1 1 1 1 1 1 1 1 1 1 1 2 3 4 4 5 5 6 6 6 7 7
5 4 4 4 3 3 3 2 2 1 1 1 0 -0 -0 -1 -0 -0 -1 -1 -1 -0 -0 0 0 0 -0 0 1 1 0 -0 0 1 2 3 4 4 5 5 6 6 6
3 3 3 3 2 2 1 1 0 -0 -1 -1 -1 -1 -1 -1 -2 -2 -2 -2 -2 -2 -2 -1 -1 -1 -1 -0 0 0 0 -0 -1 -0 0 1 2 3 3 4 5 6 6
2 2 2 2 1 1 0 -0 -1 -1 -2 -2 -2 -2 -2 -3 -3 -3 -3 -3 -3 -3 -3 -3 -3 -3 -2 -3 -3 -2 -1 0 -1 -1 -0 0 1 2 2 3 4 5 6
2 1 1 0 -0 -1 -1 -2 -2 -2 -3 -3 -3 -3 -4 -4 -4 -4 -4 -5 -5 -5 -5 -5 -4 -4 -4 -4 -4 -4 -3 -1 -0 -0 0 1 1 2 2 3 4 5 5
1 0 -0 -1 -2 -2 -2 -3 -3 -3 -3 -4 -4 -4 -5 -5 -5 -5 -5 -6 -5 -5 -5 -5 -5 -5 -5 -5 -5 -4 -3 -2 -1 -0 1 2 2 3 3 3 4 4 5
-0 -1 -1 -2 -3 -3 -3 -4 -4 -4 -4 -4 -5 -5 -6 -6 -6 -6 -6 -6 -6 -6 -6 -6 -6 -6 -6 -5 -4 -3 -2 -2 -1 -0 1 2 2 3 3 3 3 4 4
-1 -2 -2 -3 -3 -4 -4 -4 -4 -5 -5 -6 -6 -7 -7 -7 -7 -7 -7 -6 -6 -6 -6 -7 -7 -6 -6 -5 -4 -3 -3 -2 -2 -1 0 1 2 2 2 2 3 3 3
-2 -2 -3 -3 -4 -4 -5 -5 -5 -6 -7 -8 -8 -8 -8 -8 -7 -7 -7 -7 -7 -7 -7 -7 -7 -7 -6 -5 -5 -4 -3 -3 -2 -1 -1 0 1 1 1 1 1 1 1
-3 -3 -4 -4 -4 -5 -5 -6 -6 -7 -8 -9 -8 -8 -8 -8 -8 -8 -7 -7 -7 -8 -8 -8 -7 -7 -7 -6 -5 -5 -4 -4 -3 -3 -2 -1 0 0 0 0 0 0 -0
-3 -3 -4 -5 -5 -6 -6 -6 -7 -8 -9 -9 -9 -9 -8 -8 -8 -8 -8 -8 -8 -8 -8 -8 -8 -8 -8 -7 -7 -6 -5 -5 -4 -4 -3 -2 -1 -1 -1 -1 -1 -1 -1
-4 -4 -5 -6 -7 -7 -7 -7 -7 -8 -9 -9 -9 -9 -9 -9 -9 -8 -8 -8 -8 -9 -9 -9 -9 -9 -9 -8 -8 -7 -6 -5 -5 -5 -5 -4 -3 -3 -3 -3 -3 -3 -3
-5 -6 -6 -7 -8 -8 -8 -9 -9 -9 -9 -9 -10 -10 -9 -9 -9 -9 -9 -8 -9 -9 -10 -10 -10 -10 -9 -9 -8 -8 -7 -6 -6 -6 -6 -6 -5 -5 -5 -5 -4 -4 -4
-6 -7 -7 -8 -8 -9 -9 -10 -10 -10 -10 -10 -10 -10 -10 -10 -10 -9 -9 -9 -10 -10 -10 -10 -10 -10 -10 -9 -9 -8 -7 -7 -6 -6 -7 -7 -6 -6 -6 -5 -5 -4 -4
-7 -8 -8 -9 -9 -9 -10 -10 -10 -11 -11 -11 -11 -10 -10 -10 -10 -10 -10 -10 -10 -10 -11 -11 -11 -11 -10 -10 -9 -8 -8 -7 -7 -7 -7 -7 -7 -7 -6 -5 -5 -5 -5
-8 -8 -9 -10 -10 -10 -10 -11 -11 -11 -11 -11 -11 -11 -11 -10 -10 -11 -11 -11 -11 -11 -11 -11 -11 -11 -10 -9 -9 -8 -8 -7 -7 -7 -7 -7 -7 -6 -5 -5 -5 -5 -5
-9 -9 -10 -10 -10 -10 -11 -11 -11 -11 -11 -11 -11 -11 -11 -11 -11 -11 -11 -11 -11 -11 -11 -11 -11 -11 -10 -9 -9 -8 -8 -7 -7 -7 -7 -7 -6 -6 -5 -5 -5 -5 -5
-10 -10 -10 -11 -11 -11 -11 -11 -11 -11 -11 -11 -11 -11 -11 -11 -12 -12 -11 -11 -11 -11 -11 -11 -11 -10 -9 -9 -8 -8 -8 -7 -7 -7 -7 -7 -6 -5 -5 -5 -5 -4 -5
-10 -10 -11 -11 -11 -11 -11 -11 -11 -12 -12 -12 -12 -12 -12 -12 -12 -12 -12 -12 -11 -11 -11 -11 -10 -10 -9 -8 -8 -8 -8 -7 -7 -7 -7 -6 -5 -5 -5 -4 -4 -4 -5
-11 -11 -11 -11 -11 -11 -11 -12 -12 -12 -12 -12 -12 -12 -12 -12 -12 -12 -12 -12 -12 -11 -11 -11 -10 -9 -9 -8 -8 -7 -7 -7 -7 -7 -6 -6 -5 -5 -4 -4 -4 -4 -4
-11 -11 -11 -11 -12 -12 -12 -12 -12 -12 -12 -12 -12 -12 -12 -12 -12 -12 -12 -12 -12 -11 -11 -10 -10 -9 -8 -8 -8 -7 -7 -7 -6 -6 -6 -5 -5 -4 -4 -4 -4 -4 -4
-11 -11 -11 -12 -12 -12 -13 -13 -13 -13 -13 -13 -13 -13 -13 -13 -12 -12 -12 -12 -12 -11 -11 -10 -9 -9 -8 -8 -8 -7 -7 -6 -6 -6 -5 -5 -4 -4 -4 -4 -4 -4 -4
Wind_Speed
8 7 7 7 7 8 8 8 9 9 10 11 12 13 13 14 14 14 14 13 13 13 12 13 15 14 12 11 10 10 10 11 18 19 12 11 13 15 16 17 18 20 19
6 7 7 7 8 8 9 9 10 10 10 11 11 12 13 13 13 14 14 14 14 14 13 13 15 14 15 13 12 13 12 12 15 21 18 12 13 14 15 16 16 17 17
6 7 7 8 9 9 10 11 11 12 13 13 13 14 14 14 14 13 12 14 13 12 12 13 14 15 15 14 15 15 14 14 13 17 19 14 12 10 12 12 14 14 14
7 7 8 8 8 9 10 11 12 13 14 15 16 15 15 16 15 13 16 15 12 11 11 11 12 13 16 17 16 15 16 17 16 16 17 16 14 11 8 11 12 11 13
6 7 7 7 8 9 11 11 12 13 15 14 16 16 16 16 15 21 19 16 13 13 12 11 12 15 18 17 18 18 18 17 17 17 17 17 15 10 10 9 14 13 13
6 6 7 8 10 11 11 12 13 13 14 15 15 16 17 17 26 29 23 15 14 16 18 17 16 14 17 27 29 28 25 21 19 19 18 20 21 16 14 13 15 15 13
6 7 8 9 10 11 13 13 13 13 14 14 15 15 17 20 28 28 27 19 16 16 18 19 20 20 24 20 26 29 26 28 26 22 22 23 23 20 19 20 18 17 17
6 7 8 10 11 11 12 13 12 12 13 14 15 15 16 20 27 28 31 19 16 16 17 18 19 19 20 24 23 24 24 23 23 20 20 23 23 22 21 22 23 20 9
7 8 9 10 11 12 13 12 12 12 14 13 15 15 16 18 25 29 29 15 15 16 17 17 20 19 29 33 25 25 28 27 27 26 28 29 32 33 27 19 17 13 9
8 8 8 9 10 12 12 11 11 12 13 15 15 14 15 15 24 29 29 14 15 15 14 15 24 27 32 35 25 24 27 26 25 26 24 24 22 23 24 18 16 13 6
8 8 8 9 10 11 9 10 13 14 14 14 15 14 13 16 22 27 29 16 16 17 16 16 18 32 36 37 33 23 27 28 24 23 21 18 15 11 9 7 7 7 5
8 8 9 9 10 12 11 11 12 12 13 13 14 14 11 12 19 23 29 27 26 19 17 16 20 35 37 36 28 27 34 30 17 17 16 15 12 8 3 1 4 5 5
8 9 9 10 8 9 10 12 12 10 11 12 13 14 14 12 15 25 28 30 30 20 18 27 32 34 31 24 26 32 28 18 16 16 15 12 7 3 2 4 7 10 13
9 9 8 9 9 9 9 9 10 11 12 13 14 14 15 14 12 13 15 18 23 20 18 23 28 27 24 24 24 20 16 16 17 16 15 9 4 1 2 3 5 8 9
9 8 8 8 9 10 10 9 12 10 13 17 14 14 15 16 19 30 24 18 18 20 22 15 15 16 16 16 17 17 16 16 16 14 14 8 3 1 3 4 4 4 6
9 9 8 8 8 9 11 14 18 18 23 24 22 21 18 22 30 31 31 30 30 30 21 15 16 16 17 18 19 19 18 17 16 15 13 8 3 2 4 4 5 7 9
9 10 9 8 8 10 10 12 15 18 21 21 23 25 25 29 30 31 30 29 27 26 16 14 15 16 17 17 18 19 19 18 15 13 10 6 3 3 3 4 6 7 8
9 12 11 8 9 10 10 11 12 15 16 14 17 24 27 28 29 29 28 24 17 16 13 14 15 16 17 17 18 18 18 17 14 11 7 4 3 3 4 5 5 7 7
9 7 8 8 8 9 10 11 12 14 14 15 14 16 23 25 26 24 23 14 14 14 14 14 15 16 16 17 18 18 18 16 13 9 5 3 3 3 4 5 6 9 6
8 15 15 10 9 10 10 11 12 13 14 14 13 14 15 17 13 14 12 11 12 13 14 15 15 16 17 17 17 17 17 15 11 6 4 3 3 3 4 5 5 5 4
8 11 18 13 9 11 11 11 11 12 12 13 13 16 24 15 13 14 13 12 12 13 14 14 15 15 16 16 16 17 18 13 8 5 3 3 4 4 5 5 6 5 5
8 8 9 10 10 11 12 11 11 12 13 14 13 15 23 13 11 12 12 12 12 11 12 13 14 14 15 15 17 17 16 12 7 3 3 4 4 5 5 5 5 5 5
9 10 11 11 12 16 14 10 11 12 13 13 14 13 13 11 11 11 12 12 12 12 12 12 14 15 15 16 16 15 13 10 5 2 3 4 4 5 5 5 6 5 4
9 10 12 12 12 11 11 12 12 13 13 13 13 12 11 10 10 12 12 11 12 12 12 12 14 17 22 20 16 14 10 5 2 3 5 5 5 5 5 5 5 4 3
9 10 11 11 11 11 12 13 13 13 13 14 13 13 12 12 11 11 10 11 13 13 14 15 13 16 21 24 20 15 11 3 5 5 5 6 7 7 6 5 5 4 4
9 10 11 10 10 10 11 12 12 12 12 13 13 11 12 12 11 11 11 11 12 13 14 14 16 20 23 18 18 17 8 5 8 9 7 6 7 6 6 5 5 5 5
Wind_Direction
27 24 23 15 12 9 3 352 343 337 336 336 336 334 333 331 331 328 324 327 327 324 323 321 318 316 312 309 304 297 292 290 291 292 284 272 260 253 250 244 242 240 240
19 20 18 15 13 8 359 350 345 342 339 337 336 333 331 329 327 322 322 329 323 321 321 320 319 320 314 313 310 305 300 294 291 294 294 287 271 263 256 251 246 243 241
16 18 20 18 11 3 355 350 348 346 343 343 340 335 332 329 324 316 320 320 313 311 312 314 316 317 315 313 310 306 303 301 293 291 293 293 286 275 266 258 252 249 246
16 21 22 10 0 354 350 348 346 344 342 341 337 334 331 329 323 324 326 319 311 307 306 307 311 313 312 311 311 309 309 307 302 296 292 292 289 284 270 268 264 251 250
16 22 11 357 354 352 349 345 342 340 338 334 333 331 330 327 326 326 324 324 320 318 314 308 307 306 304 312 315 312 310 306 304 301 296 293 289 285 274 264 266 263 247
19 13 360 358 355 350 344 340 337 334 331 330 328 326 325 325 322 325 329 329 329 326 323 321 316 310 314 318 313 309 306 303 302 300 296 291 290 289 288 280 272 267 260
16 4 359 356 350 343 339 336 331 329 327 325 323 322 320 319 322 327 331 331 325 322 321 319 317 317 320 314 312 311 306 300 295 291 289 287 289 291 292 288 280 267 259
6 358 355 350 343 337 333 329 325 324 324 321 320 318 317 318 325 327 327 327 320 315 314 311 311 313 315 316 313 311 307 302 293 286 279 280 282 284 283 284 285 280 260
357 350 346 342 336 332 327 322 320 322 320 316 317 315 314 316 321 324 325 318 314 311 309 310 313 312 312 315 314 308 306 302 299 285 276 275 274 275 274 276 273 266 252
342 335 332 330 325 321 316 314 316 317 315 315 314 312 309 310 316 323 323 315 314 313 312 311 312 313 312 313 311 305 302 301 302 301 292 282 276 272 270 264 265 258 234
321 320 319 317 314 312 312 314 315 316 315 313 311 309 305 308 317 321 322 323 319 319 319 317 314 314 314 313 310 304 300 304 304 300 295 289 281 270 262 262 268 254 212
313 313 311 309 311 320 314 312 313 313 314 314 313 312 308 309 315 319 322 324 324 321 318 316 315 315 315 314 313 309 312 314 307 302 299 296 291 278 249 116 66 58 73
313 308 305 305 302 304 310 315 317 315 315 315 315 315 316 315 316 321 324 325 326 324 316 316 317 318 320 317 314 316 319 316 313 309 306 304 299 280 141 102 84 80 74
306 302 302 306 310 312 312 312 313 314 314 315 316 317 316 316 318 322 324 324 325 324 318 319 322 321 320 319 318 318 317 315 318 315 310 303 305 354 87 101 109 100 86
300 298 303 307 311 314 312 307 308 301 308 315 316 316 317 319 320 324 326 324 327 324 326 324 325 325 325 324 322 320 320 322 324 322 313 303 300 71 76 79 93 79 99
309 311 309 310 309 310 311 312 310 312 315 317 318 318 318 317 320 324 325 326 331 332 331 327 326 325 323 325 324 323 323 325 327 324 318 314 332 60 81 76 82 95 106
303 308 307 304 305 308 309 312 314 317 318 319 320 321 320 321 323 324 326 330 333 334 331 326 324 323 322 323 323 321 321 324 326 324 322 331 14 65 91 94 95 99 102
297 303 307 300 301 303 305 307 309 313 316 317 319 319 321 323 323 325 329 333 329 332 328 325 323 321 321 322 322 320 319 323 326 325 325 343 32 75 96 100 99 106 108
296 291 292 293 296 300 303 305 307 308 310 312 313 317 321 321 322 326 333 328 323 325 326 324 322 320 321 321 319 317 318 322 324 325 330 0 41 74 93 99 104 115 101
292 301 312 307 303 303 303 304 306 307 307 307 310 314 317 318 322 326 327 320 321 322 323 323 321 319 320 319 318 317 319 322 324 325 339 16 47 68 89 95 94 92 84
292 298 309 309 299 299 301 301 301 301 303 304 305 308 314 320 322 321 322 322 321 320 320 320 319 319 318 318 318 317 319 321 322 328 354 28 49 67 76 82 85 87 90
291 295 298 298 298 298 300 299 300 301 300 300 302 306 313 315 312 314 316 316 314 312 313 315 316 316 316 318 318 317 318 320 322 342 23 44 59 71 77 80 79 74 69
295 297 298 298 299 301 303 297 296 297 298 300 302 305 309 310 311 312 312 313 313 312 313 314 315 316 317 318 317 314 315 318 322 10 58 65 69 72 75 76 73 66 52
291 294 298 301 301 299 298 298 298 299 300 301 302 304 305 305 305 306 308 310 312 312 312 314 314 314 317 322 320 318 318 324 13 60 80 86 82 78 74 67 61 54 38
294 297 299 299 299 299 299 299 299 299 300 301 302 303 304 305 305 305 306 309 309 310 311 315 317 319 322 322 322 325 332 10 88 86 78 83 84 78 76 69 57 47 40
298 299 300 298 296 294 295 295 295 295 296 298 299 299 301 303 303 303 305 307 310 312 314 317 318 321 323 324 325 333 357 78 95 96 88 85 86 81 76 66 59 50 46
Height
1476 1473 1471 1468 1465 1462 1458 1454 1449 1445 1440 1435 1430 1425 1420 1415 1410 1405 1400 1395 1389 1384 1379 1374 1369 1366 1361 1357 1353 1349 1345 1341 1332 1321 1321 1320 1318 1316 1314 1313 1311 1310 1308
1473 1471 1468 1464 1461 1457 1453 1449 1444 1440 1435 1430 1425 1420 1415 1410 1405 1400 1395 1390 1384 1378 1372 1367 1362 1357 1353 1348 1344 1339 1335 1330 1326 1315 1308 1307 1305 1304 1301 1299 1297 1296 1294
1471 1467 1464 1460 1456 1452 1448 1444 1440 1435 1430 1425 1419 1414 1409 1404 1400 1395 1390 1384 1379 1374 1368 1362 1356 1351 1345 1340 1336 1331 1326 1321 1316 1310 1300 1296 1293 1292 1290 1286 1284 1282 1280
1468 1464 1461 1457 1453 1449 1444 1440 1435 1430 1425 1419 1414 1409 1404 1399 1394 1389 1383 1377 1372 1367 1362 1356 1351 1345 1339 1333 1328 1322 1317 1312 1306 1301 1294 1288 1283 1281 1279 1275 1271 1269 1267
1464 1461 1457 1453 1449 1445 1440 1435 1431 1426 1420 1415 1409 1403 1399 1394 1389 1384 1377 1371 1365 1359 1353 1348 1343 1338 1333 1328 1322 1315 1309 1303 1298 1292 1286 1280 1274 1271 1269 1266 1262 1257 1254
1461 1457 1453 1449 1445 1441 1436 1431 1426 1421 1416 1410 1404 1399 1393 1388 1383 1378 1372 1365 1358 1352 1345 1339 1334 1329 1324 1319 1313 1307 1302 1296 1290 1285 1278 1272 1265 1263 1260 1257 1253 1248 1243
1457 1453 1449 1445 1441 1436 1432 1427 1422 1416 1411 1405 1400 1394 1388 1383 1378 1372 1366 1360 1353 1346 1339 1332 1325 1320 1315 1308 1300 1294 1289 1286 1283 1278 1269 1261 1256 1253 1251 1246 1242 1238 1232
1453 1449 1445 1441 1436 1432 1428 1423 1418 1412 1407 1401 1395 1389 1384 1378 1373 1367 1360 1353 1346 1339 1333 1326 1319 1311 1306 1300 1292 1283 1275 1270 1269 1265 1259 1250 1245 1241 1239 1235 1231 1226 1222
1449 1445 1441 1437 1432 1428 1423 1419 1413 1407 1401 1396 1390 1384 1378 1372 1367 1361 1354 1346 1338 1332 1326 1320 1313 1304 1297 1292 1286 1276 1266 1258 1254 1250 1244 1237 1232 1228 1226 1223 1219 1215 1209
1445 1441 1438 1434 1429 1425 1420 1414 1409 1403 1396 1390 1384 1379 1373 1367 1361 1355 1348 1341 1333 1326 1319 1312 1305 1298 1290 1284 1278 1270 1261 1251 1243 1234 1228 1223 1219 1214 1212 1210 1206 1203 1198
1441 1438 1434 1430 1426 1420 1415 1410 1404 1397 1390 1384 1378 1372 1367 1361 1354 1349 1343 1337 1329 1320 1312 1304 1296 1289 1281 1275 1270 1263 1255 1246 1236 1227 1217 1210 1206 1202 1199 1196 1193 1192 1189
1437 1433 1430 1426 1421 1416 1410 1404 1398 1392 1385 1378 1372 1365 1359 1354 1349 1343 1338 1332 1325 1316 1307 1299 1290 1282 1275 1267 1260 1254 1246 1238 1228 1218 1210 1202 1197 1192 1188 1186 1184 1182 1182
1433 1429 1425 1420 1416 1411 1405 1399 1392 1386 1380 1374 1367 1360 1353 1347 1342 1337 1331 1325 1318 1310 1302 1294 1285 1276 1268 1259 1253 1247 1239 1230 1221 1212 1203 1196 1190 1185 1181 1179 1178 1177 1177
1429 1424 1419 1414 1409 1405 1400 1394 1388 1381 1376 1370 1363 1357 1349 1343 1337 1331 1325 1318 1310 1303 1294 1286 1278 1270 1262 1255 1247 1240 1232 1225 1216 1207 1198 1191 1185 1181 1178 1176 1175 1174 1175
1423 1419 1414 1409 1404 1399 1394 1389 1383 1377 1374 1368 1361 1354 1347 1339 1334 1329 1323 1314 1307 1299 1290 1280 1272 1263 1255 1248 1240 1234 1226 1218 1210 1201 1193 1187 1183 1179 1176 1174 1174 1173 1174
1418 1413 1409 1404 1399 1394 1388 1381 1375 1372 1367 1362 1357 1351 1344 1338 1331 1324 1318 1311 1303 1296 1287 1278 1270 1262 1254 1246 1237 1229 1221 1214 1205 1197 1190 1185 1181 1178 1175 1174 1175 1176 1178
1413 1409 1404 1399 1394 1389 1383 1376 1367 1361 1358 1354 1350 1345 1339 1333 1327 1320 1313 1307 1300 1292 1284 1276 1269 1261 1253 1245 1236 1227 1218 1211 1203 1195 1188 1184 1180 1178 1177 1177 1178 1179 1181
1408 1404 1399 1394 1389 1383 1378 1372 1366 1358 1351 1345 1342 1339 1334 1328 1322 1316 1310 1302 1294 1288 1282 1275 1267 1259 1251 1243 1234 1224 1216 1208 1201 1194 1188 1184 1181 1180 1180 1180 1182 1183 1185
1402 1398 1393 1388 1383 1378 1372 1367 1362 1356 1349 1343 1337 1332 1328 1322 1317 1312 1307 1300 1293 1285 1279 1272 1264 1257 1249 1240 1231 1222 1214 1207 1200 1193 1188 1185 1183 1182 1183 1184 1186 1188 1189
1396 1392 1387 1382 1376 1371 1366 1361 1356 1351 1345 1340 1334 1329 1323 1317 1311 1307 1302 1297 1290 1284 1276 1269 1261 1254 1246 1237 1228 1219 1212 1206 1199 1194 1190 1187 1185 1186 1187 1188 1190 1191 1193
1388 1384 1380 1375 1370 1365 1360 1356 1351 1346 1341 1336 1330 1325 1321 1315 1309 1304 1298 1293 1287 1280 1273 1265 1258 1250 1242 1234 1225 1217 1211 1205 1200 1195 1192 1190 1190 1190 1192 1193 1194 1195 1197
1382 1377 1373 1368 1364 1359 1354 1350 1345 1341 1335 1330 1324 1320 1316 1311 1306 1300 1295 1289 1283 1277 1270 1263 1255 1248 1240 1231 1223 1215 1210 1205 1200 1197 1195 1194 1195 1196 1196 1197 1198 1199 1200
1375 1370 1366 1361 1357 1352 1348 1343 1339 1334 1329 1325 1320 1315 1310 1306 1301 1296 1290 1285 1279 1272 1266 1260 1252 1244 1237 1229 1222 1215 1210 1205 1202 1199 1199 1199 1200 1200 1201 1202 1203 1203 1203
1368 1364 1359 1354 1350 1345 1341 1337 1332 1328 1323 1319 1314 1309 1305 1301 1296 1291 1286 1280 1274 1269 1263 1256 1249 1242 1234 1227 1220 1215 1210 1206 1204 1202 1202 1204 1205 1205 1206 1207 1207 1207 1206
1361 1356 1351 1347 1342 1338 1333 1329 1325 1321 1317 1312 1308 1304 1300 1295 1291 1286 1281 1276 1271 1265 1259 1253 1246 1239 1232 1225 1219 1215 1211 1208 1206 1206 1207 1208 1210 1210 1211 1211 1211 1211 1210
1352 1348 1343 1339 1334 1329 1325 1321 1318 1314 1310 1306 1302 1298 1294 1290 1286 1282 1277 1272 1267 1262 1256 1250 1244 1237 1231 1224 1219 1216 1213 1211 1211 1211 1212 1214 1215 1216 1216 1216 1216 1215 1215